Regional Weather Roundup
Issued by NWS Albany, NY

Home | Current Version | Previous Version | Graphics & Text | Print | Product List | Glossary On
Versions: 1 2 3 4 5 6 7 8 9 10 11 12 13 14 15 16 17 18 19 20 21 22 23 24 25 26 27
000
ASUS41 KALY 220910
RWRALY

NEW YORK STATE HOURLY WEATHER ROUNDUP
NATIONAL WEATHER SERVICE ALBANY NY
400 AM EST SUN JAN 22 2017

NOTE: "FAIR" INDICATES FEW OR NO CLOUDS BELOW 12,000 FEET WITH NO
SIGNIFICANT WEATHER AND/OR NO OBSTRUCTIONS TO VISIBILITY.

NYZ032-033-038>043-046>054-057>066-NYZ062>081-082-084-221000-
EAST


CITY           SKY/WX    TMP DP  RH WIND       PRES   REMARKS
ALBANY         FOG       38  36  92 N5        29.74F VSB 3/4 WCI  34
GLENS FALLS    CLOUDY    36  34  92 CALM      29.75F FOG
POUGHKEEPSIE   CLOUDY    40  39  97 CALM      29.73S FOG
NEWBURGH       FOG       41  41 100 CALM      29.74R VSB 1/2
MONTGOMERY     FOG       42  41  96 SW3       29.72S VSB 3/4
WHITE PLAINS   FOG       44  42  93 NE3       29.72F VSB 1/4
ISLIP          FOG       42  42 100 CALM      29.72F VSB 1/2
NEW YORK CITY  FOG       46  43  89 NE3       29.72F VSB 1
CENTRAL PARK   MOCLDY    43  43 100 CALM      29.74F FOG
$$

NYZ005>009-017-018-044>046-055-056-221000-
CENTRAL


CITY           SKY/WX    TMP DP  RH WIND       PRES   REMARKS
FULTON         PTCLDY    42  41  96 CALM      29.68F FOG
SYRACUSE       PTCLDY    38  38 100 E3        29.68F FOG
ROME           CLOUDY    38  38 100 E3        29.71F
ELMIRA         FOG       40  37  89 CALM      29.70S VSB 1/4
BINGHAMTON     FOG       41  41 100 CALM      29.69S VSB 1/4
MONTICELLO       N/A     37  37 100 CALM      29.72S VSB 1/2
$$

NYZ026>034-041>043-087-221000-
NORTH


CITY           SKY/WX    TMP DP  RH WIND       PRES   REMARKS
WATERTOWN      PTCLDY    36  36 100 NE8       29.70F FOG     WCI  30
FORT DRUM      NOT AVBL
OGDENSBURG     CLOUDY    37  36  98 N3        29.75S
MASSENA        CLOUDY    36  36 100 NE6       29.79F FOG     WCI  31
SARANAC LAKE   FOG       35  34  96 CALM      29.71F VSB 1/2
PLATTSBURGH    FOG       35  35 100 CALM      29.80R VSB 1/4
$$

NYZ001>004-010>016-019>021-085-221000-
WEST


CITY           SKY/WX    TMP DP  RH WIND       PRES   REMARKS
NIAGARA FALLS  FOG       37  33  85 NW6       29.68S VSB 1/4 WCI  32
BUFFALO        PTCLDY    41  39  93 N6        29.67F
DUNKIRK        PTCLDY    39  38  96 CALM      29.67F
JAMESTOWN        N/A     46  43  87 S3        29.68S VSB 1/2
WELLSVILLE     CLOUDY    46  43  89 CALM      29.70S FOG
ROCHESTER      FOG       38  37  97 N3        29.68F VSB 3/4
PENN YAN       CLEAR     45  41  86 SW7       29.68S
$$

             KEY
       WCI = WIND CHILL INDEX
       VSB = VISIBILITY
       HX  = HEAT INDEX
$$




USA.gov is the U.S. government's official web portal to all federal, state and local government web resources and services.